|
NORAD ID: 16736 Int'l Code: 1986-039B
Perigee: 945.7 km
Apogee: 963.1 km
Inclination: 82.5 °
Period: 104.0 minutes
Semi major axis: 7325 km
Launch date: May 27, 1986
Source: Commonwealth of Independent States (former USSR) (CIS)
Note: This is a ROCKET BODY
Two Line Element Set (TLE):
1 16736U 86039B 13141.47593860 -.00000012 00000-0 -23753-4 0 6638
2 16736 082.5362 131.6044 0011845 321.4620 038.5694 13.84695431363806
Source:
NASA's NSSDC Master Catalog entry for SL-14 R/B
|